This demonstration page uses our WeatherBlox Daily Observations layout. Learn more.

Left ArrowRight Arrow

34.16533, -84.80231

Hourly Observations for March 17, 2021

Temp ( °F °C ) Dew Point ( °F °C ) Humidity (%) Winds ( mph kmh ) Pressure ( in mb ) Visibility ( mi km ) Precip ( " mm )
12:53 am 00:53 Cloudy with Mist and Fog 51 10.6 49 9.4 92 92 Calm 30.03 1017 4 6 0.00 0.00
1:53 am 01:53 Cloudy with Mist and Fog 51 10.6 49 9.4 92 92 Calm 30.03 1017 5 8 0.00 0.00
2:03 am 02:03 Cloudy with Mist and Fog 51 10.6 49 9.4 92 92 VRB 3 6 30.05 1018 4 6 0.00 0.00
2:53 am 02:53 Cloudy with Mist and Fog 51 10.6 49 9.4 92 92 ENE 3 6 30.01 1016 3 4 0.00 0.00
3:14 am 03:14 Cloudy with Mist and Fog 51 10.6 49 9.4 92 92 ENE 6 9 30.03 1017 2 2 0.00 0.00
3:53 am 03:53 Mostly Cloudy with Mist and Fog 52 11.1 50 10 93 93 ENE 6 9 29.99 1016 1 1 0.00 0.00
4:16 am 04:16 Mostly Cloudy with Mist and Fog 51 10.6 50 10 96 96 Calm 30.03 1017 1 2 0.00 0.00
4:26 am 04:26 Mostly Cloudy with Mist and Fog 52 11.1 50 10 93 93 NNE 5 7 30.03 1017 1 1 0.00 0.00
4:46 am 04:46 Cloudy with Mist and Fog 52 11.1 50 10 93 93 Calm 30.04 1017 1 2 0.00 0.00
4:53 am 04:53 Cloudy with Mist and Fog 52 11.1 50 10 93 93 Calm 30.01 1016 2 2 0.00 0.00
5:11 am 05:11 Cloudy with Mist and Fog 52 11.1 49 9.4 89 89 ENE 3 6 30.04 1017 3 4 0.00 0.00
5:24 am 05:24 Cloudy with Mist and Fog 52 11.1 50 10 93 93 ENE 3 6 30.03 1017 1 2 0.00 0.00
5:53 am 05:53 Mostly Cloudy with Mist and Fog 52 11.1 50 10 93 93 Calm 30.01 1016 1 1 0.00 0.00
6:15 am 06:15 Mostly Cloudy with Mist and Fog 52 11.1 50 10 93 93 ESE 3 6 30.04 1017 1 2 0.00 0.00
6:53 am 06:53 Cloudy with Mist and Fog 52 11.1 50 10 93 93 NE 6 9 30.01 1016 2 2 0.00 0.00
7:15 am 07:15 Cloudy with Mist and Fog 52 11.1 50 10 93 93 Calm 30.05 1017 2 3 0.00 0.00
7:39 am 07:39 Cloudy with Mist and Fog 52 11.1 50 10 93 93 E 3 6 30.06 1018 2 3 0.00 0.00
7:53 am 07:53 Cloudy with Mist and Fog 52 11.1 50 10 93 93 E 3 6 30.03 1017 2 3 0.00 0.00
8:42 am 08:42 Cloudy with Mist and Fog 52 11.1 50 10 93 93 E 3 6 30.07 1018 3 5 0.00 0.00
8:50 am 08:50 Cloudy with Mist and Fog 52 11 50 10 94 94 SE 3 6 30.07 1018 2 3 0.00 0.00
8:53 am 08:53 Cloudy with Mist and Fog 52 11.1 51 10.6 97 97 E 3 6 30.04 1017 2 3 0.00 0.00
9:12 am 09:12 Cloudy with Mist and Fog 52 11.1 51 10.6 97 97 ESE 6 9 30.04 1017 2 2 0.00 0.00
9:27 am 09:27 Cloudy with Mist and Fog 53 11.7 51 10.6 93 93 E 7 11 30.03 1017 3 4 0.00 0.00
9:34 am 09:34 Cloudy with Mist and Fog 53 11.7 51 10.6 93 93 SE 7 11 30.03 1017 4 6 0.00 0.00
9:53 am 09:53 Cloudy 53 11.7 51 10.6 93 93 SE 7 11 30.03 1017 7 11 0.00 0.00
10:30 am 10:30 Cloudy with Light Rain 54 12.2 51 10.6 90 90 VRB 6 9 30.04 1017 8 13 0.00 0.00
10:53 am 10:53 Cloudy with Light Rain 55 12.8 52 11.1 90 90 ENE 8 13 29.99 1016 8 13 0.01 0.25
11:28 am 11:28 Cloudy 55 12.8 52 11.1 90 90 ESE 7 11 30.00 1016 10 16 0.00 0.00
11:45 am 11:45 Cloudy 56 13.3 52 11.1 87 87 SE 9 15 30.01 1016 10 16 0.00 0.00
11:53 am 11:53 Cloudy 56 13.3 53 11.7 90 90 ESE 8 13 30.00 1016 10 16 0.00 0.00
12:53 pm 12:53 Cloudy 59 15 54 12.2 83 83 VRB 3 6 30.03 1017 10 16 0.00 0.00
1:53 pm 13:53 Cloudy with Light Rain 59 15 55 12.8 87 87 E 6 9 30.01 1016 10 16 0.01 0.25
2:53 pm 14:53 Cloudy 59 15 55 12.8 87 87 ESE 7 11 29.98 1015 10 16 0.00 0.00
3:53 pm 15:53 Cloudy 59 15 55 12.8 87 87 ESE 8 13 29.91 1013 10 16 0.01 0.25
4:53 pm 16:53 Cloudy 59 15 55 12.8 87 87 ESE 9 15 29.93 1014 10 16 0.00 0.00
5:53 pm 17:53 Cloudy with Rain 58 14.4 55 12.8 90 90 E 7 11 29.91 1013 5 8 0.13 3.30
6:53 pm 18:53 Cloudy with Light Rain 58 14.4 54 12.2 87 87 VRB 7 11 29.88 1012 10 16 0.06 1.52
7:53 pm 19:53 Cloudy 57 13.9 54 12.2 90 90 E 6 9 29.90 1013 10 16 0.01 0.25
8:25 pm 20:25 Cloudy 57 13.9 54 12.2 90 90 VRB 7 11 29.92 1013 8 13 0.00 0.00
8:53 pm 20:53 Cloudy with Mist and Fog 57 13.9 54 12.2 90 90 VRB 7 11 29.89 1012 5 8 0.00 0.00
9:53 pm 21:53 Cloudy with Mist and Fog 57 13.9 54 12.2 90 90 VRB 5 7 29.90 1013 5 8 0.00 0.00
10:53 pm 22:53 Cloudy with Mist and Fog 57 13.9 55 12.8 93 93 SE 8 13 29.88 1012 4 6 0.00 0.00
11:53 pm 23:53 Cloudy 58 14.4 56 13.3 93 93 ESE 6 9 29.85 1011 8 13 0.00 0.00

Powered by AerisWeather